SKYSAT-C6 (42992 NORAD) Tracking and Keplerian Element Data

This shows tracking and keplerian element data for the satellite.

Feedback or suggestion? Click here.




ElementValue
Catalog42992
NameSKYSAT-C6
Epoch Orbit10449
Epoch Day262.20890949
Epoch Year2019
RAAN15.2598
Inclination97.4421
Eccentricity0.0012082
Argument of Perigee22.0101
Mean Anonmoly338.1651
Mean Motion15.21848049
Decay Rate3.67E-06
L11 42992U 17068F 19262.20890949 .00000367 00000-0 19227-4 0 9990
L22 42992 97.4421 15.2598 0012082 22.0101 338.1651 15.21848049104491

Live tracking and technical data element details for SKYSAT-C6 (NORAD 42992). SKYSAT-C6 can be tracked NOW for your location showing map with azimuth and elevation plus other details from your city location.

Track the satellite on the map from your city or location and see movement details for azimuth, elevation, latitude, longitude, range, height, and movement on the map or in text.







IsCatalogInMostPopularTable: catalog: 42992, numindb: 307
Update: records affected: 1



GetName: 42992 SKYSAT-C6

Hit Count: updated at: Thu, 19 Sep 2019 17:19:36 GMT